Wind_Gust
16 20 16 16 17 19 20 20 21 28 28 28 28 23 27 16 12 16 13 10 24 18 10 11 11 15 16 12 13 17 25 23 30 19 16 22 18 21 22 29 28 27 27 30 28 27 24 18 17 17 17 18 18 18 18 18 17 15 14 15 16 15 15 15 15 16 17 18 18 18 16 15 14 14 13 13 12 12 11 11 11 10 10 11 11 11 11 11 12 11 11 11 10 11 11 12 11
20 15 13 14 19 21 21 20 28 21 26 26 29 23 19 16 12 15 19 13 17 15 11 10 11 13 12 13 16 14 22 25 24 30 26 23 20 22 27 28 28 28 26 29 28 26 24 24 17 17 18 18 18 19 19 19 17 16 16 15 15 15 14 15 16 16 17 17 17 17 16 15 14 14 13 12 11 11 10 10 10 10 10 10 10 10 10 10 9 8 11 9 10 10 12 12 13
16 14 18 17 20 24 22 19 27 24 27 27 25 34 20 17 14 16 14 11 12 11 10 10 8 9 11 10 11 17 20 19 24 24 25 22 24 24 24 29 29 26 26 26 27 27 25 22 17 17 18 18 18 18 19 19 18 17 16 16 16 16 16 16 16 17 17 17 17 16 15 14 13 14 13 12 12 11 11 9 10 10 10 10 9 9 8 9 9 9 9 9 10 11 12 13 12
18 15 20 17 20 20 23 23 25 26 26 24 26 22 14 11 12 17 11 11 10 11 12 14 18 11 15 17 14 16 20 20 19 20 29 23 24 26 30 30 30 27 24 24 26 25 23 21 17 18 18 17 17 18 18 18 18 18 17 16 16 16 15 15 16 16 16 16 16 15 14 14 13 13 13 12 11 9 10 10 9 10 10 10 9 9 8 7 9 8 9 9 10 11 11 13 10
18 16 18 21 23 23 23 24 26 26 28 24 24 25 14 12 15 9 13 9 11 12 17 15 12 12 16 16 10 17 22 20 18 17 27 21 26 26 30 30 29 27 26 25 25 25 24 20 17 17 16 17 17 17 17 17 17 18 17 16 17 16 15 15 15 15 15 16 15 14 14 13 13 13 12 11 10 10 10 10 10 9 9 8 7 6 5 5 8 8 9 9 9 9 10 10 9
19 18 17 21 25 27 26 25 25 28 25 26 27 21 14 13 11 10 12 11 11 13 10 15 14 19 17 21 24 23 12 13 20 20 23 25 26 26 29 30 30 26 25 23 23 23 26 18 16 16 17 16 16 17 17 17 17 17 17 17 17 17 15 15 14 15 15 14 14 14 13 13 12 12 11 10 10 10 10 9 11 10 9 9 7 7 8 9 8 8 6 8 10 10 10 9 10
20 18 21 21 27 25 23 24 26 25 26 22 26 20 14 12 12 11 13 13 13 14 12 16 10 18 17 19 21 20 14 17 17 20 17 25 26 26 24 31 31 28 24 24 22 25 26 17 16 16 16 17 16 16 16 16 16 16 17 17 17 17 16 15 14 14 14 14 14 14 13 13 12 12 11 10 10 10 9 10 11 11 10 9 8 9 8 8 8 8 9 10 11 13 13 10 9
18 24 19 23 21 24 25 26 28 26 21 17 16 19 10 12 11 11 11 18 20 22 17 11 17 17 16 17 18 14 15 13 20 20 26 26 25 24 22 27 29 28 26 23 23 25 24 17 15 16 17 17 17 16 16 16 15 15 16 16 17 17 16 16 15 14 13 13 14 14 13 12 12 11 11 10 11 11 10 11 11 11 11 10 9 9 8 8 7 10 11 12 13 14 14 11 11
20 24 13 22 26 25 24 28 28 25 22 13 15 13 9 12 12 13 13 13 14 13 16 16 15 15 16 18 19 17 17 16 21 22 24 25 25 23 24 26 27 29 28 26 24 26 25 16 15 14 16 17 17 16 15 15 15 13 14 14 15 14 14 15 15 14 13 12 13 13 12 12 11 11 10 10 11 11 10 10 10 10 10 10 10 10 10 9 9 11 13 13 13 13 14 13 11
22 22 20 23 21 26 25 26 27 25 20 12 14 16 14 11 14 12 15 16 14 13 14 13 15 15 20 21 19 16 18 19 22 23 23 25 24 22 22 24 24 27 27 26 25 27 24 20 15 13 14 14 15 15 14 13 12 11 11 12 12 12 13 13 13 12 12 12 12 12 11 11 11 11 11 11 10 11 10 10 10 10 10 11 10 10 10 11 11 13 14 14 13 13 13 13 11
26 25 21 24 24 26 26 23 27 21 19 15 15 11 12 11 14 15 13 16 16 16 16 14 21 15 23 20 17 16 18 21 22 24 23 23 23 23 22 23 23 23 27 27 25 24 27 24 18 13 12 13 13 11 11 12 12 11 10 10 10 11 11 11 12 13 11 11 12 11 11 11 11 12 12 11 12 11 10 10 10 10 9 10 10 10 10 11 12 13 13 13 12 12 11 9 11
24 23 22 24 24 24 24 28 23 14 12 13 19 14 14 11 10 16 15 19 14 19 19 18 20 15 20 22 17 18 19 20 21 22 22 22 23 23 22 23 21 22 23 28 27 23 24 23 22 19 14 15 14 12 11 10 11 11 10 10 9 10 9 9 11 11 11 11 11 10 11 11 11 12 12 11 12 12 11 11 11 10 10 10 10 10 11 11 11 12 12 12 12 11 10 9 9
26 20 22 24 25 25 25 23 21 14 18 16 20 23 14 13 15 14 16 17 15 19 20 19 13 19 22 19 18 21 21 21 21 23 23 22 23 23 22 22 23 23 23 24 28 28 25 23 24 24 19 17 14 13 12 10 10 10 10 10 9 10 10 10 10 11 11 11 10 11 11 11 11 11 11 10 10 12 11 11 12 12 10 10 11 11 13 13 12 12 12 13 12 11 10 9 8
26 20 21 26 21 27 24 20 19 21 24 21 21 14 9 13 12 16 18 19 18 21 22 23 15 31 25 24 17 21 21 20 22 22 22 23 23 23 22 23 21 23 22 23 28 28 25 23 24 23 24 21 18 15 12 11 11 12 11 10 8 9 7 8 9 9 9 10 12 11 12 11 11 11 10 10 9 10 10 10 11 12 11 11 11 12 12 12 11 12 12 13 12 11 10 9 8
25 18 23 24 27 21 19 29 23 20 25 23 17 9 11 15 12 14 20 20 19 20 18 19 16 21 22 21 22 23 22 22 22 21 21 21 23 22 22 22 20 19 20 22 24 25 23 23 23 23 22 21 19 18 16 15 12 12 11 10 11 11 9 7 9 9 11 10 10 10 10 11 10 10 10 9 9 9 10 10 10 12 12 12 12 12 12 11 12 12 12 11 11 9 8 8 7
22 19 21 24 25 23 22 23 22 19 18 19 19 9 14 11 15 18 18 23 20 16 15 20 15 20 28 24 24 23 26 24 21 21 22 22 22 21 23 21 21 20 19 19 21 23 23 23 21 22 22 20 19 17 16 17 13 12 11 12 12 11 10 11 10 9 11 11 11 11 10 14 12 13 10 12 9 8 8 11 11 11 12 12 12 12 12 12 12 13 13 11 11 10 9 8 8
19 20 23 25 27 23 18 19 14 27 19 11 17 14 16 18 15 16 14 13 23 15 18 18 22 11 15 16 28 27 26 23 21 23 22 24 23 22 22 21 20 20 19 18 17 24 24 22 22 19 19 20 19 20 19 20 19 14 12 12 10 11 12 12 11 12 11 11 11 9 11 15 14 15 17 14 10 14 9 5 10 11 11 12 13 13 13 14 14 15 13 12 12 11 9 9 8
20 24 24 24 24 24 16 21 17 21 18 15 13 14 13 17 11 11 14 20 23 17 22 18 15 14 16 30 28 28 26 26 25 25 25 23 21 23 22 21 20 20 20 18 18 20 25 26 25 21 19 19 19 19 20 18 20 17 19 18 16 13 11 11 14 18 14 17 9 12 14 10 13 14 16 14 15 14 13 9 9 9 10 12 12 13 13 13 14 13 13 12 13 11 12 15 13
23 23 25 25 22 19 12 14 15 17 15 16 13 12 13 16 13 12 21 20 25 25 23 18 18 20 25 28 29 28 27 26 25 23 24 22 22 21 21 21 19 20 19 17 17 18 19 23 27 25 22 19 21 20 19 17 19 17 18 18 18 10 15 17 17 19 18 18 20 18 11 11 13 11 13 14 15 11 16 11 10 9 9 12 13 13 13 14 13 13 13 13 12 12 17 17 16
23 25 25 25 22 15 10 11 14 13 15 15 13 13 16 12 15 12 19 18 23 27 28 24 25 24 24 25 26 29 27 28 25 24 24 22 21 21 20 20 20 19 18 18 17 16 16 16 19 26 25 22 19 18 18 17 16 15 16 18 16 14 16 16 16 16 18 17 18 16 13 11 13 10 10 11 14 16 16 10 9 8 8 10 10 13 13 14 15 14 14 14 11 12 16 19 17
22 28 26 22 15 16 11 10 12 13 12 15 15 13 20 13 14 14 14 20 21 22 23 23 25 26 29 30 29 26 29 29 26 24 23 23 21 20 20 20 21 19 18 18 17 16 15 14 16 18 23 22 25 18 17 17 17 15 18 17 17 18 17 17 17 18 17 15 14 18 23 25 21 20 15 17 15 17 15 15 17 15 14 14 12 14 17 19 17 17 18 18 17 17 16 13 9
18 22 21 26 12 16 12 14 8 12 11 15 13 18 15 14 17 16 17 20 19 22 21 23 21 23 29 28 29 25 27 27 26 25 23 21 20 18 18 19 17 16 17 17 17 18 16 16 16 17 25 19 22 20 22 22 19 16 12 15 17 20 22 16 18 20 17 15 18 21 17 25 19 18 16 14 15 14 14 19 19 15 17 12 16 15 12 16 16 16 16 18 17 14 13 9 9
25 19 23 21 17 19 10 11 10 10 18 15 14 14 14 15 15 13 15 16 12 13 17 19 22 27 28 25 30 30 26 25 24 23 23 21 21 19 18 19 18 18 16 16 15 15 16 15 15 16 15 19 23 27 27 28 22 30 23 14 17 19 19 19 19 19 16 18 26 24 22 18 21 20 13 15 16 19 15 14 16 18 14 15 15 10 10 12 12 15 14 14 15 15 15 15 12
23 27 15 18 13 17 15 16 11 16 16 16 14 14 17 11 19 12 18 14 11 12 13 15 26 28 24 27 26 29 28 26 23 22 24 21 19 19 18 18 18 16 16 15 16 15 14 16 15 14 13 12 10 15 22 27 22 27 29 27 23 16 17 19 22 21 14 19 20 26 20 16 17 12 13 11 9 10 14 8 10 11 14 10 12 11 15 10 9 10 12 12 12 14 16 14 14
24 31 16 16 13 15 15 17 17 15 14 15 15 16 16 13 15 13 15 12 13 14 14 20 22 20 21 23 29 27 25 24 23 23 22 22 20 19 17 19 16 17 17 16 15 16 16 14 13 13 14 12 11 10 10 9 14 19 26 23 21 16 18 18 18 16 17 18 19 17 13 12 13 10 10 11 10 9 6 7 7 11 10 9 8 10 9 8 8 9 9 10 10 11 13 12 14
28 21 17 12 15 17 18 16 15 16 17 14 15 17 10 11 11 16 16 12 12 16 18 26 27 28 29 25 22 22 24 23 24 24 23 21 21 20 19 20 20 18 19 16 15 13 15 16 14 15 12 14 14 9 7 7 8 8 11 18 19 23 15 17 15 16 15 11 13 13 12 12 9 12 9 7 8 8 7 6 10 16 13 8 9 9 9 9 7 9 11 15 11 13 13 15 15
13 15 16 18 18 17 14 17 18 16 17 11 19 16 15 12 20 19 10 14 14 21 26 24 27 30 29 25 25 23 24 23 24 25 24 21 22 21 19 21 22 21 19 18 17 16 14 16 15 15 14 8 11 11 7 7 6 7 10 10 11 11 12 12 13 14 12 16 13 12 13 12 13 11 12 8 8 7 7 9 8 9 11 10 10 11 10 6 6 7 11 10 14 13 13 12 15
15 15 15 18 19 18 15 16 17 16 21 16 19 15 11 15 16 15 17 14 13 19 26 26 23 24 27 25 24 23 24 25 26 24 25 24 25 24 22 23 20 21 20 19 16 16 15 13 16 13 16 8 8 10 9 7 7 7 7 10 8 8 8 8 11 11 8 9 12 10 12 13 10 19 10 9 10 9 8 7 8 11 14 13 12 11 8 7 8 15 8 10 8 12 10 11 12
16 15 22 23 22 25 18 22 21 20 22 19 20 13 20 22 17 17 15 16 14 16 21 29 29 30 29 27 25 26 26 28 26 27 24 23 21 23 22 20 22 22 20 18 18 17 14 12 14 13 16 10 7 9 12 8 6 9 8 8 9 8 9 9 9 9 10 10 9 9 9 9 9 14 11 10 11 8 9 10 12 12 13 12 13 11 11 7 9 6 9 8 10 10 11 11 11
15 17 23 16 20 24 21 16 17 22 18 16 16 26 24 24 19 15 15 15 16 16 19 21 27 26 28 27 29 27 26 30 27 27 25 23 21 22 22 21 20 20 22 20 19 19 15 14 14 12 13 14 7 9 6 9 8 8 7 7 9 9 8 8 8 8 9 12 12 11 10 9 8 13 15 11 9 9 8 10 12 12 13 14 14 12 12 11 10 9 10 12 11 13 13 11 11
24 19 22 24 21 26 24 23 19 25 21 18 19 27 19 20 18 15 10 13 17 18 19 20 25 28 30 27 25 24 24 26 25 24 22 21 24 24 25 22 21 19 21 20 20 20 15 16 14 13 9 12 10 10 8 8 7 8 6 7 10 8 8 8 8 10 11 10 12 13 10 10 8 7 8 11 8 9 11 12 12 12 12 15 15 13 13 13 12 12 12 12 12 12 13 11 9
22 23 23 22 27 26 22 17 19 28 25 21 21 26 19 21 21 16 12 13 17 17 19 23 20 21 23 18 21 23 22 20 21 21 20 20 21 25 25 23 20 20 20 21 21 20 18 16 13 14 12 10 9 10 9 8 9 7 9 6 8 7 10 7 11 9 10 11 9 12 11 9 8 8 7 9 11 13 12 12 12 10 12 13 15 14 13 14 12 13 11 12 12 14 13 14 9
22 25 13 19 23 27 18 18 20 24 21 19 24 25 20 22 21 16 14 15 15 18 17 18 19 22 26 26 23 19 25 22 22 22 28 24 23 25 25 23 21 20 20 20 20 19 19 17 15 14 13 11 11 11 10 9 8 9 8 8 7 8 10 9 8 9 7 14 11 11 7 9 9 9 9 10 10 10 11 11 10 11 11 13 15 15 14 15 13 15 11 11 13 10 15 13 11
21 21 20 14 23 25 18 22 21 17 18 23 25 30 18 21 15 16 16 15 17 19 17 16 19 21 24 22 23 20 20 25 24 24 25 23 23 24 23 21 20 20 20 19 19 19 19 18 16 15 13 13 13 12 10 10 10 9 8 9 9 9 7 7 8 9 10 10 16 16 11 11 9 10 9 10 10 11 11 11 11 11 12 13 15 16 16 15 14 14 15 12 12 12 14 16 12
19 19 14 16 20 19 18 28 26 20 22 29 24 24 25 22 18 17 16 16 16 17 17 15 17 18 22 30 30 27 25 25 23 23 27 24 26 28 26 24 21 20 19 19 20 19 19 18 17 15 14 14 13 13 11 10 10 7 11 8 9 7 8 9 6 10 9 8 10 10 9 8 10 9 10 9 9 10 10 10 11 11 12 13 15 16 17 16 16 16 15 12 14 14 12 13 12
10 15 17 21 19 22 21 23 20 14 18 27 18 22 26 20 17 18 14 14 16 15 16 16 18 19 19 23 25 28 27 25 22 21 25 26 26 27 26 26 20 21 19 20 19 19 18 18 16 16 15 15 13 13 14 13 12 12 11 10 10 10 9 10 9 10 9 11 8 9 9 7 8 7 8 7 8 8 10 11 10 11 12 12 12 16 16 17 17 16 16 15 15 15 16 12 11
16 15 14 17 18 24 23 16 15 13 19 21 24 22 22 18 13 12 14 14 15 17 17 18 18 18 19 20 20 29 30 30 30 30 29 29 27 29 22 23 22 21 19 20 20 19 19 19 18 17 16 15 14 14 14 12 12 11 10 9 11 10 11 9 9 12 13 13 12 12 10 10 9 8 8 8 8 8 10 10 10 10 13 14 13 10 17 16 16 15 12 9 7 14 17 12 11
16 17 18 19 17 22 19 20 14 13 18 22 21 16 19 19 17 16 14 16 20 19 19 20 19 20 20 19 19 20 28 33 35 30 29 29 29 24 22 23 20 24 22 21 21 21 19 17 18 18 17 15 13 11 11 10 9 10 11 12 10 12 13 12 12 12 12 12 10 10 10 9 8 8 8 8 7 8 8 10 8 9 11 13 14 17 16 17 14 15 10 11 18 19 18 14 10
15 21 18 21 19 18 21 15 16 13 16 23 18 21 24 25 20 16 15 18 19 18 19 19 20 18 18 19 17 16 20 30 28 30 28 33 27 24 21 20 21 21 21 22 21 21 20 19 18 17 17 16 14 11 11 11 9 9 7 12 8 13 15 14 15 15 12 14 10 10 9 8 8 9 8 7 6 6 6 6 8 8 9 8 10 11 9 10 13 13 15 15 15 17 14 10 10
19 21 24 23 20 26 22 16 15 14 21 18 20 18 18 20 17 18 17 19 18 12 13 17 17 19 20 19 18 17 18 22 23 22 27 26 25 25 22 21 20 20 21 21 21 22 23 21 19 18 18 15 16 12 10 11 11 10 10 10 10 10 14 13 13 12 13 12 13 11 12 10 9 9 9 9 8 8 6 6 7 7 7 7 8 7 8 8 12 16 11 9 10 13 13 10 10
20 20 21 22 19 16 21 13 10 9 15 15 19 21 25 24 25 25 22 19 14 17 18 17 17 17 16 13 14 14 17 19 22 22 21 24 26 27 27 24 23 23 22 23 23 24 23 22 21 19 19 17 16 14 11 13 14 13 13 13 13 15 13 13 12 14 12 12 13 11 12 10 10 11 9 11 12 8 7 6 8 7 8 7 7 7 6 7 7 9 8 8 8 10 12 10 9
20 18 18 19 19 11 15 13 16 21 20 22 19 28 28 26 30 28 19 20 20 20 22 22 22 21 19 18 17 15 13 14 18 23 24 23 25 25 25 25 25 24 24 23 23 24 22 24 23 20 19 18 18 16 14 14 15 15 16 16 16 15 14 13 13 13 13 12 14 11 12 11 12 11 11 11 11 10 9 8 7 8 8 8 7 7 7 7 7 7 9 8 7 9 11 10 10
20 20 19 18 19 15 15 17 16 22 24 16 15 23 26 16 16 18 18 20 21 20 18 21 22 21 20 19 18 18 16 16 15 16 24 23 22 24 25 27 27 26 25 23 23 23 23 23 23 22 21 19 20 18 16 15 15 15 15 14 14 14 14 13 13 11 12 13 12 11 13 10 12 12 11 11 10 11 10 10 9 10 9 9 10 10 11 11 13 15 12 10 10 9 7 8 11
22 16 16 15 20 17 17 18 21 24 14 23 19 23 22 23 19 13 14 18 18 18 19 18 19 19 19 15 14 11 12 10 14 15 16 19 22 23 24 25 25 26 24 24 24 24 24 24 22 22 21 21 20 20 19 17 16 15 15 14 14 14 14 15 14 13 12 13 13 12 13 12 12 12 11 11 12 11 11 11 10 9 8 10 10 10 10 11 11 13 13 11 10 11 10 10 10
17 13 15 17 18 16 17 21 22 21 17 24 22 23 29 25 17 16 18 20 20 21 20 17 17 13 13 12 11 10 9 10 12 13 12 14 18 21 21 23 24 24 26 27 27 25 25 24 23 22 22 21 21 20 20 19 17 17 17 15 15 15 17 16 15 15 15 14 12 12 12 13 12 11 12 12 12 13 12 12 11 10 10 9 11 12 11 13 12 12 11 12 12 11 11 11 9
10 12 14 19 17 16 17 20 22 18 19 23 21 17 28 25 17 21 19 21 23 20 16 16 13 11 10 9 9 9 10 9 11 13 13 14 15 17 19 20 23 25 25 24 25 25 26 25 24 24 22 22 22 22 22 19 17 18 17 15 15 15 17 17 15 15 15 13 13 13 12 13 14 13 12 13 12 14 13 12 12 11 10 13 14 14 12 11 10 11 11 11 11 10 11 12 13
14 13 20 21 20 19 18 20 23 21 25 25 21 17 20 26 18 17 19 13 17 20 16 13 12 11 12 11 9 11 13 13 14 15 14 12 13 16 18 21 22 23 23 25 26 27 27 26 27 25 23 22 23 23 21 20 19 17 18 17 16 16 16 16 17 16 16 14 15 14 13 13 13 14 13 12 11 13 12 12 11 11 11 10 12 11 10 12 10 10 10 11 12 12 12 11 11
16 23 23 19 21 19 21 22 20 25 26 23 20 20 18 25 19 18 16 13 11 13 18 14 10 10 13 11 13 14 15 15 16 16 15 14 14 16 18 21 22 24 24 26 25 27 28 28 29 29 26 23 23 23 22 21 20 18 16 17 18 16 17 18 18 17 16 15 14 14 14 14 14 14 13 13 12 11 11 11 11 10 11 10 11 11 10 11 11 11 11 11 12 11 11 11 12
23 22 23 20 20 17 23 23 23 25 24 14 12 14 19 25 23 10 14 15 15 12 10 13 11 11 12 13 13 13 14 13 14 14 12 12 13 13 17 19 20 23 25 25 26 25 26 26 28 29 28 25 25 24 23 22 20 19 19 18 18 18 17 17 18 18 17 17 17 15 14 15 15 15 14 14 12 11 11 11 10 10 10 10 11 11 11 11 11 12 12 12 13 13 14 13 14
23 25 20 21 25 23 21 22 22 24 19 10 14 10 22 17 15 13 17 15 15 15 13 12 12 11 11 12 11 13 13 15 15 15 15 13 11 11 14 17 20 21 21 24 24 24 24 25 27 28 29 27 25 24 25 23 21 20 18 18 19 19 18 18 17 19 19 18 18 17 15 15 15 14 15 14 15 13 12 11 10 11 11 11 11 10 10 10 9 13 12 13 12 12 12 11 12
25 21 25 22 22 23 22 24 21 20 16 13 13 13 20 22 13 12 15 15 15 15 17 14 11 11 9 10 13 14 15 15 16 16 16 14 10 8 11 15 17 19 19 22 22 23 23 24 27 27 27 27 25 25 25 24 23 21 19 19 20 19 20 20 19 18 19 18 18 19 17 16 16 16 17 15 16 13 13 13 12 12 12 10 10 9 10 10 9 11 13 11 12 11 11 11 12
19 21 22 25 21 17 27 17 20 17 17 14 19 18 12 17 20 14 16 17 16 16 17 15 13 11 12 11 13 15 16 17 17 15 16 13 10 8 9 13 14 16 17 19 19 19 19 21 23 25 26 26 25 25 24 25 23 22 20 20 20 19 19 20 19 18 19 17 17 19 17 16 16 17 17 17 16 15 15 15 14 14 13 12 11 10 9 10 9 9 11 10 11 11 10 9 10
10 20 24 21 16 21 19 16 15 6 19 30 18 19 24 18 21 17 18 18 19 18 17 16 15 15 12 13 14 15 16 18 17 16 16 16 12 9 12 11 11 11 15 16 16 16 17 17 20 23 22 22 23 23 23 24 23 21 21 20 20 19 18 18 19 17 18 18 17 18 17 17 16 18 19 19 18 16 16 15 15 15 14 13 12 11 10 10 9 9 10 10 10 9 9 10 9
24 21 19 19 17 17 20 23 11 16 25 23 19 19 22 21 21 26 22 20 19 18 17 17 14 15 14 14 14 16 17 17 17 17 15 15 15 13 12 14 15 13 13 14 14 13 15 16 18 21 20 21 22 21 21 21 22 22 21 21 20 20 19 17 17 17 18 18 18 19 18 19 18 19 21 20 20 19 17 16 16 16 15 14 14 13 12 11 9 10 9 9 9 9 9 10 9
25 24 16 17 16 18 19 21 21 22 24 24 19 21 25 23 20 20 21 21 20 19 18 18 17 14 15 15 17 16 16 16 17 17 17 16 15 13 13 13 16 17 15 13 13 13 13 14 15 16 19 18 19 19 18 19 20 19 19 20 20 20 19 18 17 16 17 18 19 19 19 19 19 19 21 21 21 22 20 19 17 17 16 16 15 15 14 13 12 11 10 10 9 9 8 8 8
24 22 29 21 25 22 19 21 23 24 23 21 20 24 24 19 19 18 19 20 21 20 19 17 17 16 15 15 16 17 16 16 17 18 18 17 16 15 14 15 19 18 16 15 16 12 13 13 14 15 16 16 14 15 16 15 17 17 17 17 19 21 20 19 19 19 21 20 21 19 19 19 20 21 21 22 22 22 22 21 19 19 18 18 17 16 15 15 13 12 12 12 11 10 10 9 9
24 27 26 26 26 18 25 24 26 24 25 23 23 24 21 17 11 12 19 20 19 19 19 17 16 17 17 17 17 17 17 16 17 17 18 17 16 16 16 16 20 20 19 16 15 13 14 12 11 14 14 15 16 14 14 13 15 16 15 14 16 14 17 20 20 20 21 17 17 18 19 19 21 22 23 23 23 23 23 22 22 21 21 19 18 17 16 15 14 14 13 11 13 12 12 11 9
19 18 19 23 22 24 25 28 26 31 31 28 24 31 22 12 11 10 13 16 18 19 17 18 18 19 18 18 16 17 18 17 17 17 17 18 18 18 19 21 20 20 20 19 16 14 15 13 14 10 11 14 15 15 13 13 13 13 15 18 17 15 14 17 19 20 21 20 20 20 19 21 21 23 24 26 25 23 23 23 22 22 22 21 20 20 18 17 16 16 14 13 13 14 12 11 10
Wind_Speed
9 9 7 7 7 7 7 6 8 8 8 11 11 9 5 5 1 6 4 1 11 8 2 3 3 5 5 2 4 7 15 12 13 6 5 6 8 10 13 18 18 16 17 16 14 14 14 14 14 14 14 15 15 15 14 14 14 12 12 13 13 12 12 12 12 13 14 15 14 13 12 10 9 10 10 10 9 9 8 8 8 8 7 7 7 8 8 7 8 8 8 7 8 9 8 9 8
8 7 6 6 7 7 6 7 7 8 9 10 12 11 5 5 2 6 9 5 7 5 2 1 2 2 4 6 7 5 12 14 14 12 10 10 10 9 17 15 17 16 16 15 15 14 14 14 14 14 15 15 15 16 16 15 14 13 13 12 12 12 11 12 13 13 14 14 14 13 11 10 10 10 10 10 9 9 8 8 7 7 7 7 7 7 8 7 5 6 8 6 7 7 9 9 9
6 5 6 6 7 8 7 6 9 9 11 11 9 14 7 7 3 6 3 4 5 3 2 1 0 1 2 3 1 7 7 11 13 12 9 12 12 10 16 18 17 15 16 14 14 14 12 14 14 14 15 15 15 15 16 15 14 14 13 12 13 13 13 13 13 13 13 13 13 12 12 11 10 10 10 9 9 8 8 7 7 7 7 7 6 6 6 6 6 5 6 6 7 7 9 9 9
9 7 8 5 6 6 7 6 10 10 10 9 10 8 4 1 3 8 4 4 1 3 2 5 7 4 6 8 3 9 9 9 8 10 9 10 9 13 16 18 15 13 13 12 14 13 12 13 14 15 15 14 14 15 15 14 15 14 13 13 13 13 12 12 13 13 13 13 13 12 11 11 11 10 10 9 9 7 8 8 7 7 7 7 6 5 5 5 6 5 6 6 7 7 9 9 8
8 6 7 7 8 7 7 7 10 10 11 8 9 10 5 3 6 1 5 1 3 3 7 5 2 4 6 5 0 3 8 10 10 8 8 9 13 12 18 18 14 14 13 13 14 14 13 16 14 14 13 14 14 14 14 14 14 14 14 13 13 13 12 12 12 12 12 13 12 11 11 11 10 10 10 9 7 8 8 8 8 7 7 6 5 4 3 4 6 5 6 5 7 6 6 7 6
8 7 7 7 7 7 7 9 9 12 10 11 12 4 4 4 1 2 5 3 3 4 3 7 4 8 6 10 8 7 5 3 10 10 10 11 16 15 19 17 13 13 14 13 13 12 13 15 13 13 13 13 13 14 13 14 13 14 14 13 13 13 12 12 12 11 12 11 11 11 10 10 9 9 9 8 7 8 7 7 8 7 7 6 5 5 6 7 6 6 4 6 7 7 7 6 7
6 6 6 7 9 7 8 10 11 10 11 12 11 8 6 4 2 4 4 5 4 6 5 6 2 9 6 5 7 7 6 9 6 9 8 13 16 14 16 18 16 13 14 12 11 14 16 14 14 13 13 14 13 13 13 13 13 13 14 14 14 13 13 12 11 11 11 11 11 11 10 10 10 9 8 8 8 8 7 8 9 8 7 7 6 7 6 7 6 6 6 7 9 10 10 8 7
7 9 6 8 6 7 10 11 12 10 4 8 6 9 2 3 3 4 3 8 9 9 8 4 8 7 6 9 5 5 8 6 11 10 16 13 15 15 13 16 15 13 13 13 13 14 17 13 13 13 14 14 13 13 13 12 12 12 13 13 14 14 12 12 11 11 10 10 11 10 10 9 10 9 8 8 9 8 8 9 9 8 7 7 7 7 6 6 6 8 9 9 10 10 11 8 7
7 8 4 8 10 7 9 11 12 12 10 3 7 3 4 4 4 5 5 3 5 5 7 7 7 4 1 7 7 4 5 7 12 14 14 15 14 13 10 15 15 14 12 12 13 15 15 13 12 12 13 14 13 13 12 12 12 11 12 12 12 12 12 12 12 11 10 10 10 10 10 9 9 9 8 8 9 8 8 8 8 8 7 7 7 7 7 7 7 8 10 10 10 10 10 10 8
7 7 7 6 7 11 11 10 11 11 8 3 4 6 6 3 6 4 7 7 6 4 5 6 6 7 9 11 6 7 6 10 12 13 14 14 14 11 13 15 15 16 15 11 13 15 13 15 12 11 11 11 12 11 11 11 9 9 9 10 10 10 10 11 11 10 10 10 10 9 9 9 9 8 9 8 8 8 8 8 8 8 7 7 7 7 7 8 9 9 11 10 10 9 10 10 8
8 8 7 8 9 10 10 9 11 10 9 6 6 2 4 2 5 6 5 8 7 7 8 6 10 5 11 9 4 5 10 11 11 14 13 14 14 13 12 13 13 14 16 14 14 13 14 13 14 11 10 10 10 9 9 10 9 9 8 8 8 9 9 9 9 10 9 9 9 9 9 8 9 8 9 8 9 9 7 8 8 7 7 7 7 7 7 8 9 10 10 10 10 9 8 7 8
8 8 7 9 9 9 10 11 12 3 3 2 8 6 4 3 1 7 7 10 6 9 9 9 3 5 10 9 4 7 9 11 11 12 12 13 12 13 12 11 12 12 14 17 14 14 13 13 12 13 12 12 12 10 8 9 9 9 9 8 7 8 8 8 8 9 9 9 8 8 8 9 9 9 9 8 9 9 7 8 9 7 7 8 8 7 8 9 9 9 10 10 10 8 7 6 6
10 7 9 9 9 10 12 11 8 6 7 5 9 10 5 5 6 5 8 8 6 9 9 9 4 10 6 8 5 7 6 12 11 12 12 10 12 12 12 11 12 13 13 15 16 14 15 13 12 12 12 14 12 11 9 8 9 8 9 8 8 8 8 8 8 8 9 9 8 8 9 9 9 9 9 8 8 10 9 8 9 8 8 8 9 8 10 9 9 9 9 10 9 8 6 6 6
9 7 7 10 8 12 10 8 7 9 7 10 9 6 2 4 4 7 7 10 9 10 10 12 6 19 12 5 2 2 5 9 13 12 10 12 12 11 12 11 12 13 13 13 16 14 13 13 12 13 13 11 10 10 9 9 9 10 9 8 6 6 6 7 7 6 7 8 10 9 8 9 9 9 8 8 7 8 8 8 9 9 8 8 9 10 10 10 9 9 9 9 9 8 7 6 5
10 6 8 8 10 9 8 11 11 8 9 10 7 2 1 6 5 5 10 10 9 10 6 10 7 9 8 10 8 10 9 11 12 12 11 12 13 13 13 11 12 11 12 12 14 14 12 12 12 11 12 10 9 8 8 8 10 9 9 9 9 8 6 5 7 7 6 7 9 8 8 8 8 8 8 7 6 7 9 8 8 9 8 9 10 9 10 9 9 10 10 9 8 7 6 5 4
8 6 6 9 10 10 8 10 11 8 3 9 9 2 4 4 6 9 8 12 8 7 7 5 3 4 12 10 12 13 13 13 13 11 11 13 13 12 11 11 11 11 8 10 11 12 12 10 11 11 9 11 10 8 8 9 9 10 8 10 10 8 8 9 8 5 6 7 8 8 8 8 7 7 7 7 6 5 6 7 9 9 9 9 9 10 9 9 10 10 10 9 8 8 6 5 5
7 7 8 9 11 10 7 7 4 8 3 1 8 5 7 6 5 6 6 5 13 4 6 8 10 3 6 4 17 17 14 14 13 13 13 12 10 9 9 9 9 9 7 8 8 12 11 11 11 9 11 12 9 6 4 6 9 9 9 9 8 9 9 9 9 10 9 8 6 7 7 6 5 6 5 6 8 6 6 2 8 9 9 9 10 10 9 10 10 11 10 9 9 9 7 6 4
6 8 8 10 9 11 6 10 6 9 7 5 3 6 5 9 2 2 5 11 12 7 10 9 7 5 6 14 16 17 16 16 15 15 13 12 9 10 10 9 9 9 8 7 8 11 12 10 10 11 8 10 8 5 3 5 8 9 9 9 7 7 8 9 8 8 9 8 6 4 5 3 5 4 7 7 7 7 6 7 7 7 8 9 10 10 10 11 11 10 10 10 9 9 10 5 6
8 8 9 10 9 7 3 5 7 7 5 8 4 4 4 7 4 1 8 10 13 13 11 10 9 8 16 13 12 16 16 16 15 14 15 14 11 13 10 9 9 9 8 7 7 9 10 12 14 11 10 8 12 10 7 7 9 7 8 8 7 5 8 9 8 7 7 7 7 6 3 3 5 5 6 7 8 10 10 9 8 7 8 10 11 10 10 11 10 10 10 10 10 10 8 7 7
10 10 10 10 11 4 1 3 6 5 7 6 5 4 6 4 6 3 9 9 12 15 12 12 11 12 13 14 14 13 15 15 15 14 15 13 12 12 11 10 9 10 9 7 7 7 7 7 10 14 12 13 10 7 8 7 7 7 7 8 7 6 8 7 7 7 7 7 8 6 5 4 4 3 4 6 10 7 7 8 8 7 7 8 9 9 10 10 11 11 11 11 8 7 6 8 7
8 11 10 9 2 6 2 2 4 6 4 6 6 5 10 3 5 5 6 10 11 11 12 12 15 15 16 13 12 12 14 15 14 13 14 13 13 10 10 10 9 9 7 7 7 6 6 6 8 10 12 8 7 7 8 8 7 6 7 8 7 8 8 7 6 8 6 5 5 6 7 5 5 5 6 8 7 7 7 5 3 5 6 6 9 5 7 7 9 8 8 9 8 7 7 6 4
7 10 11 14 3 7 5 5 0 4 4 7 5 9 6 6 8 8 8 9 6 6 10 13 11 14 17 15 13 10 13 13 13 15 12 13 13 11 10 9 9 7 8 7 8 7 7 7 6 8 13 9 7 4 3 3 8 8 5 4 6 4 6 7 6 5 3 5 7 7 6 8 8 5 6 5 2 6 3 6 6 3 5 5 5 6 5 7 7 6 7 8 7 6 6 4 3
9 8 12 11 8 9 3 2 3 3 8 8 6 4 5 7 6 5 8 7 1 4 8 11 13 16 18 16 17 19 16 13 16 13 14 13 12 11 10 9 9 8 7 7 6 7 7 7 7 7 7 11 14 12 7 5 1 2 2 4 6 4 2 2 2 4 5 6 6 5 6 8 8 8 6 8 8 5 3 5 5 6 4 6 7 4 3 5 5 5 5 6 6 6 6 6 5
10 10 7 10 6 8 7 8 4 7 9 8 5 6 8 4 10 4 9 5 4 4 4 7 16 17 12 12 5 12 17 17 14 14 12 12 11 11 10 10 9 8 7 7 7 6 6 7 7 6 5 5 4 8 13 13 9 10 4 3 5 5 7 5 8 7 6 7 9 11 12 6 6 5 6 5 4 5 7 3 2 5 7 4 5 4 6 4 3 3 5 5 5 6 6 6 5
11 13 8 6 6 7 7 8 8 7 6 6 7 8 8 5 4 4 6 5 5 5 6 10 13 10 10 15 20 17 16 15 15 14 11 11 11 11 10 8 9 8 9 7 7 7 7 6 6 5 6 4 4 3 3 3 7 10 12 8 6 6 7 7 8 6 7 8 9 10 6 3 6 3 4 4 3 3 2 1 1 2 4 1 1 2 2 3 3 3 3 3 3 4 5 5 6
14 12 9 4 7 8 9 9 7 8 6 6 6 9 3 4 2 8 7 4 2 7 9 12 6 12 8 7 10 12 15 14 14 14 13 11 11 13 11 10 9 9 8 8 7 6 6 7 6 6 4 5 5 3 1 1 2 2 6 10 9 12 7 8 7 4 4 1 5 6 4 4 3 5 3 1 3 2 2 1 3 3 3 2 1 2 3 2 2 3 4 6 3 4 5 6 5
3 8 8 9 9 9 7 8 9 8 8 4 9 8 7 5 9 5 3 6 6 11 9 14 11 7 8 9 8 11 14 15 15 13 12 12 12 12 11 12 11 10 10 10 8 6 7 7 6 6 5 3 3 3 2 2 1 2 4 3 3 4 6 6 6 6 5 8 5 5 6 5 5 1 4 0 2 1 1 3 0 1 2 2 2 3 4 0 1 1 4 3 6 4 5 5 6
7 7 7 10 10 9 7 7 9 6 9 8 10 5 2 8 7 3 9 6 5 11 14 12 11 13 13 14 15 11 12 13 13 13 15 16 11 11 12 10 11 12 11 10 7 8 7 6 7 6 8 3 3 2 3 1 2 1 1 3 1 0 3 2 3 4 1 3 6 4 2 2 1 5 2 2 2 3 1 2 1 2 3 3 4 2 2 1 1 6 2 2 3 5 3 4 5
8 6 10 13 13 11 9 11 12 10 9 10 11 5 11 10 8 9 7 8 6 8 13 17 13 11 13 14 13 13 13 13 14 13 13 12 11 11 11 10 9 11 9 9 9 9 7 7 7 7 7 4 1 4 5 2 1 2 2 1 3 1 2 2 2 2 5 2 1 2 3 2 3 4 3 3 4 2 4 1 3 3 4 4 4 4 3 2 3 1 1 2 3 3 4 3 4
7 9 10 7 9 11 12 8 9 12 7 9 7 9 9 12 9 7 7 6 8 8 10 11 14 15 14 14 15 14 14 14 13 13 14 12 11 11 11 8 11 9 10 9 11 10 7 6 6 5 6 5 2 3 1 1 2 2 1 0 3 1 2 2 1 3 4 5 4 3 2 2 1 5 2 2 3 2 2 2 4 4 4 6 5 4 4 3 3 3 3 5 4 5 5 4 4
9 9 9 9 8 9 13 10 9 13 11 9 9 11 7 10 10 7 3 5 9 9 9 10 13 11 16 14 11 11 12 14 12 10 12 8 9 11 12 11 11 11 10 11 12 11 9 8 6 5 3 6 3 4 1 2 1 2 1 2 4 1 1 1 2 3 2 1 3 2 2 3 1 1 2 4 3 2 4 4 4 4 4 5 6 5 5 4 5 3 4 5 5 3 5 3 2
9 8 9 8 11 9 12 9 10 14 11 12 11 10 7 11 10 8 5 6 8 8 10 12 10 11 2 5 10 9 9 7 10 13 10 8 9 11 13 13 12 12 12 12 11 11 10 9 7 7 5 4 4 4 3 2 3 2 3 2 3 2 1 0 4 3 3 3 2 3 1 3 2 1 1 2 4 5 5 4 4 2 3 5 6 6 5 5 5 5 5 5 2 6 5 5 2
8 10 5 8 9 9 8 9 10 15 8 10 13 9 9 9 12 8 6 8 7 9 8 10 8 11 12 5 2 4 8 8 8 6 9 11 10 11 11 12 11 12 12 12 12 11 10 10 8 8 7 6 5 5 4 3 3 3 3 3 2 3 3 1 3 3 1 5 2 2 2 2 1 2 2 2 2 3 3 3 3 2 3 5 5 5 5 5 5 6 2 3 5 2 4 3 3
7 7 7 6 11 11 6 11 11 8 7 10 13 13 8 11 6 7 8 8 9 10 9 8 10 10 14 8 7 8 8 9 11 13 12 9 9 12 13 13 12 13 12 11 12 11 10 9 8 7 6 6 5 5 4 3 3 3 2 3 4 3 1 2 2 3 3 3 6 4 3 3 2 3 3 4 4 3 3 3 2 3 4 5 5 5 6 6 5 5 5 0 2 3 5 4 4
7 7 5 3 9 10 6 9 12 10 12 15 14 11 13 12 10 8 8 8 8 8 8 7 8 9 11 12 16 14 9 7 10 11 15 14 14 16 13 14 12 11 10 12 12 11 10 9 8 8 7 7 6 6 5 4 4 2 4 3 4 2 2 3 1 3 2 2 4 4 2 3 3 3 3 1 2 3 2 2 4 3 4 4 5 4 6 6 6 5 5 2 1 4 5 6 3
1 7 7 10 8 9 8 11 10 6 9 13 9 7 13 11 5 8 7 6 8 7 9 7 8 9 9 12 13 11 12 13 11 11 15 11 15 16 15 15 11 10 11 11 12 11 10 10 8 8 7 7 6 6 5 4 4 4 4 3 3 4 3 4 3 3 3 4 3 2 2 1 2 1 1 1 1 2 3 1 3 4 2 4 2 6 5 7 7 6 6 6 3 5 7 2 3
8 7 6 7 6 11 13 8 7 2 9 9 12 12 12 10 5 5 6 6 7 8 9 8 9 8 9 9 10 17 17 16 14 13 12 17 16 16 13 13 11 11 11 12 11 11 11 9 10 9 8 7 6 5 5 5 4 4 3 2 4 3 4 3 3 5 5 5 6 4 4 3 2 2 0 3 3 2 3 4 4 4 5 6 5 3 5 7 6 5 2 1 1 1 4 5 2
8 8 8 7 7 9 7 9 7 5 8 9 12 6 9 9 8 8 6 8 11 10 10 11 11 10 10 10 10 8 16 9 17 16 17 18 16 16 12 12 12 14 13 13 13 12 11 10 10 9 8 7 6 4 3 3 3 3 4 4 3 4 5 4 4 4 4 4 3 3 3 3 2 2 2 2 1 2 3 3 3 3 4 6 5 6 5 8 7 2 2 1 2 3 1 6 3
8 9 8 9 7 8 10 7 6 3 6 10 6 9 10 14 11 8 7 9 9 10 10 10 11 10 8 8 8 8 12 18 17 18 18 18 17 15 11 11 12 12 12 13 13 12 11 10 9 9 8 7 6 4 4 4 2 4 1 4 2 5 6 6 6 6 4 5 4 4 3 3 2 3 2 2 0 0 1 0 2 2 3 2 3 5 4 2 3 6 7 4 4 6 6 2 1
8 9 10 9 8 11 8 7 6 6 7 8 10 8 6 10 9 9 9 9 9 6 7 9 10 10 10 10 9 8 9 10 12 14 17 16 16 14 12 11 11 11 11 12 12 13 11 10 10 9 9 8 7 6 4 4 4 4 5 4 5 4 6 6 6 5 5 5 5 4 5 4 4 3 2 2 2 3 2 0 0 1 1 1 3 1 2 4 7 9 6 4 2 4 4 3 2
10 11 10 9 9 7 8 3 3 2 7 8 10 8 6 10 11 11 11 10 6 7 8 8 8 8 8 7 6 7 9 10 12 12 12 12 15 15 14 13 12 12 12 12 12 12 10 12 11 11 10 9 8 7 5 6 6 6 6 6 7 7 6 5 5 5 4 5 4 4 4 4 4 4 3 5 5 2 2 2 2 2 2 1 0 1 0 1 0 2 2 1 1 2 2 3 2
8 10 10 11 11 4 8 6 7 7 7 10 10 9 11 12 17 14 8 8 9 10 12 12 12 12 10 9 8 6 7 6 10 12 10 12 14 14 15 15 14 13 13 12 12 13 12 12 11 11 10 9 9 9 7 7 6 6 7 6 6 6 6 5 5 5 5 4 5 4 5 4 5 4 4 4 5 3 3 1 1 2 3 3 0 1 1 1 2 2 4 3 3 3 3 3 3
9 6 11 10 11 7 7 9 6 8 9 3 6 9 7 7 6 8 8 10 11 10 9 12 12 11 10 9 9 9 8 7 7 6 13 13 13 13 15 15 15 14 13 12 12 13 13 13 13 12 11 10 10 10 9 7 7 7 7 7 6 6 6 5 6 5 5 5 5 5 5 4 5 5 5 4 4 4 4 4 3 4 4 3 3 4 5 5 5 6 5 4 4 4 2 2 5
8 6 7 7 10 9 9 9 10 9 6 12 10 8 6 8 7 6 6 9 10 8 9 9 9 10 11 8 6 6 5 4 7 8 8 10 11 13 14 15 14 14 13 13 13 13 15 14 14 13 11 11 10 11 10 8 8 8 8 7 6 6 6 7 7 6 5 5 5 5 5 5 5 5 4 4 4 4 4 4 4 3 2 3 2 3 4 4 4 5 6 5 4 5 4 4 4
0 4 8 8 9 9 9 10 9 9 8 10 8 11 10 9 6 7 8 10 9 10 11 8 8 5 4 2 3 2 2 1 3 3 4 7 10 12 12 13 14 14 14 15 15 14 14 14 14 13 12 11 12 13 11 10 8 8 8 7 7 6 7 7 7 6 6 6 6 5 5 5 5 5 5 5 5 5 5 4 4 5 5 4 3 4 5 6 6 6 5 5 5 5 5 5 3
2 5 4 9 8 8 9 8 9 7 7 9 10 7 9 9 7 8 9 10 12 10 8 8 4 4 1 1 1 2 2 2 3 3 4 5 6 8 10 12 13 13 14 14 14 14 15 14 14 14 13 11 12 13 12 11 10 9 8 8 8 8 7 7 7 7 6 6 6 6 5 5 5 5 5 6 5 6 5 5 5 5 5 6 6 6 5 5 4 5 5 5 5 5 5 6 6
6 5 10 9 9 8 7 7 9 8 9 11 12 10 9 9 7 6 8 4 7 8 5 5 5 4 5 3 2 1 1 3 3 4 3 2 3 7 9 11 13 13 12 14 14 15 15 15 16 16 14 11 12 13 13 12 10 10 9 9 9 9 9 8 8 7 7 6 6 6 5 5 5 5 5 5 5 5 5 5 4 4 4 4 4 4 4 4 4 4 4 5 6 6 5 5 5
8 8 9 7 8 7 8 7 8 8 9 11 12 9 9 10 7 7 6 5 2 5 9 6 3 3 4 2 3 5 6 6 7 6 6 5 5 6 8 11 13 14 14 14 14 14 16 15 17 18 17 14 13 13 13 12 10 10 9 10 10 9 9 8 9 9 8 8 7 6 6 5 6 5 5 5 5 5 4 4 4 4 4 4 4 3 4 4 4 4 4 4 5 5 5 5 5
10 9 9 7 6 4 6 7 8 8 7 2 1 6 7 11 9 1 7 6 7 4 2 5 4 3 3 4 5 5 5 5 6 5 5 4 4 4 7 10 11 13 13 15 15 14 15 15 17 18 17 16 15 14 14 13 12 11 10 10 10 9 10 9 9 9 9 8 7 7 6 6 6 6 5 5 5 5 4 4 4 4 4 4 4 5 5 5 5 5 5 6 6 6 6 6 6
10 10 7 7 8 7 8 8 5 8 9 1 5 0 8 6 5 4 8 7 7 6 5 5 5 4 3 3 3 4 5 6 6 6 6 6 4 2 5 8 10 11 13 13 13 13 13 13 16 17 18 17 15 15 15 14 13 11 10 10 10 10 10 9 9 9 9 8 8 8 7 6 6 6 6 6 6 6 5 5 4 5 5 5 4 4 4 3 3 5 5 5 5 5 5 5 6
10 10 10 8 8 6 8 7 7 7 3 5 2 4 4 11 2 3 7 7 7 7 8 7 5 5 2 3 4 4 6 7 6 7 7 6 4 1 2 6 8 10 11 12 12 12 12 12 15 16 17 16 16 16 15 15 12 12 11 10 10 9 10 10 9 9 9 8 8 9 8 8 7 7 7 6 7 6 6 6 6 6 5 5 4 4 4 4 3 4 5 5 4 4 5 5 5
7 8 8 10 7 6 10 5 8 5 5 3 8 4 1 1 8 3 6 8 7 8 8 8 6 4 4 4 5 5 6 7 7 6 7 6 4 3 2 5 6 8 10 10 11 10 10 11 13 15 16 16 15 15 14 14 13 11 12 12 11 10 10 9 9 9 9 8 8 9 8 8 8 8 8 8 8 7 7 6 6 6 6 5 5 4 3 4 3 3 4 4 4 3 3 3 3
1 7 9 7 5 9 6 6 6 1 6 10 5 5 9 6 9 8 9 8 10 9 9 8 7 7 5 5 5 6 7 8 7 7 7 7 5 2 2 3 5 5 7 9 9 9 10 9 11 14 14 13 14 14 13 14 13 12 13 12 11 11 10 11 9 10 10 9 8 9 8 8 9 9 9 10 9 8 7 7 7 7 6 6 5 5 4 4 3 3 4 3 4 3 3 3 3
8 7 5 9 8 6 5 6 2 5 8 6 7 9 10 8 4 12 11 11 10 9 9 9 7 7 6 6 6 7 8 8 8 8 7 8 8 5 3 4 5 6 7 7 8 7 8 7 10 13 12 13 13 12 12 12 13 12 12 12 12 11 10 9 9 10 9 9 9 9 8 9 9 9 9 9 10 10 9 9 7 7 7 6 6 6 6 5 4 3 3 3 3 3 3 3 2
11 10 3 6 3 7 7 4 7 8 9 6 7 11 11 9 6 8 11 11 10 10 9 9 8 6 7 7 8 8 8 7 7 8 7 7 6 6 5 5 6 7 8 7 6 6 6 7 8 9 10 10 10 9 10 9 11 9 9 10 11 10 10 9 8 8 9 9 10 9 10 9 9 10 10 11 10 11 10 10 9 8 8 7 7 6 6 6 5 5 4 4 3 3 2 2 2
14 11 12 9 8 8 6 4 8 7 9 8 7 10 7 5 7 9 10 11 11 11 10 9 8 8 6 7 7 8 8 7 8 8 8 8 7 7 7 5 6 7 7 8 9 5 7 7 7 8 9 8 8 8 9 8 9 9 8 8 9 9 9 9 8 8 8 10 10 10 10 10 10 9 10 12 11 11 11 11 10 9 9 9 8 7 7 7 6 5 5 4 4 4 4 3 3
8 10 10 9 8 6 8 8 9 8 8 7 7 8 5 6 1 4 9 9 10 10 9 7 7 8 8 8 8 8 8 8 8 8 8 8 8 7 7 6 6 7 9 8 7 6 7 6 5 7 7 8 8 7 6 5 5 6 8 8 7 7 7 5 9 9 9 9 8 9 9 9 9 10 10 11 12 12 12 12 11 10 11 10 9 9 8 7 6 6 6 5 5 5 5 4 3
7 6 6 7 9 9 10 10 8 11 10 8 7 9 7 3 3 2 1 7 8 10 9 8 9 10 9 9 9 9 9 9 9 8 9 9 9 8 8 8 8 9 10 11 9 7 6 6 6 3 3 6 8 7 5 6 6 6 8 7 7 6 5 5 5 9 11 7 6 7 10 11 11 11 11 12 13 12 12 12 12 12 11 11 11 10 9 8 7 8 6 5 6 6 5 4 4
Wind_Direction
254 233 245 243 254 258 258 218 247 184 238 243 255 241 290 186 3 256 249 173 238 105 325 163 271 160 265 264 244 78 41 16 20 299 100 128 128 126 118 123 125 125 127 128 129 131 133 127 124 122 123 124 122 121 122 120 121 119 118 126 127 126 127 121 115 116 120 124 130 132 132 134 134 128 121 120 119 119 119 121 122 126 127 131 129 129 124 128 141 115 108 113 111 102 104 98 100
228 236 231 244 243 243 216 215 256 258 212 243 243 259 168 132 125 233 258 200 17 70 161 140 227 201 47 281 344 81 62 53 48 82 114 118 126 124 110 119 117 120 125 131 136 135 138 135 128 125 126 127 126 126 128 129 124 123 122 124 123 122 118 115 117 121 122 127 132 134 134 133 128 125 122 121 123 121 118 120 124 123 125 126 133 138 139 134 117 119 121 114 106 107 104 101 98
266 218 214 220 235 239 300 217 249 241 245 240 237 228 93 215 217 201 220 57 64 75 224 172 15 132 156 329 251 241 96 88 90 83 97 133 135 126 123 120 122 130 128 132 137 139 138 137 132 129 130 129 126 128 131 130 128 126 124 123 123 122 120 121 121 122 125 128 131 133 132 128 127 125 125 125 123 122 120 115 117 117 121 125 130 133 140 137 133 136 119 124 113 112 108 105 102
284 263 259 210 223 207 243 229 238 267 260 261 271 95 223 265 236 58 55 70 132 198 186 134 224 81 271 210 83 61 108 91 102 119 125 152 130 139 133 117 122 124 128 134 136 138 140 134 134 131 133 130 129 129 129 128 128 127 128 126 126 124 122 123 125 123 127 129 130 129 130 129 129 128 128 127 125 120 118 114 110 116 116 123 129 135 140 139 127 138 132 125 114 108 113 105 101
254 235 242 246 272 222 232 241 247 238 246 254 256 91 353 151 12 287 99 92 113 223 201 140 243 141 21 15 142 109 83 102 102 115 113 115 129 132 119 122 128 131 130 136 139 137 131 136 132 129 131 131 128 128 130 130 130 131 131 131 129 125 124 126 127 127 127 128 127 128 129 131 131 129 128 126 116 114 113 112 114 108 109 113 115 110 79 100 141 141 128 124 122 112 108 98 95
237 243 207 255 242 0 283 248 237 243 267 274 271 47 69 16 352 57 111 224 166 206 228 172 231 168 160 43 18 119 36 290 93 101 133 125 132 129 122 121 123 126 131 133 134 137 135 129 129 131 128 128 130 130 130 133 133 134 135 133 131 127 124 125 128 129 128 129 129 131 132 133 131 129 126 119 117 117 114 111 116 111 113 110 110 101 84 76 82 91 104 113 106 109 105 102 95
216 216 197 223 250 250 251 251 250 251 242 235 260 301 33 84 65 243 155 189 179 213 171 203 238 167 158 153 75 49 76 137 142 117 131 131 124 133 143 130 123 127 129 134 139 133 128 124 127 130 132 130 130 133 135 134 136 138 137 136 134 132 131 131 131 132 133 134 136 134 133 132 131 127 124 118 113 114 104 110 118 118 113 116 110 106 94 88 95 96 97 111 104 91 92 92 96
264 261 170 228 235 204 231 250 258 265 131 251 36 298 122 77 302 268 171 240 153 228 176 223 193 175 85 186 145 37 61 18 101 126 119 134 132 139 137 120 122 131 135 136 135 129 122 115 124 132 135 136 135 135 136 138 138 139 139 139 138 136 134 135 133 133 134 134 135 135 133 132 127 123 120 122 116 108 107 115 119 121 125 119 116 115 116 116 111 116 111 109 115 102 102 102 99
227 236 246 255 253 229 241 245 252 234 274 91 250 75 25 357 340 307 245 264 91 229 165 210 201 212 195 69 45 72 77 95 105 117 127 131 136 129 129 129 131 140 133 131 134 131 131 115 113 119 135 137 138 139 138 140 140 139 139 142 141 141 140 139 139 138 136 135 136 138 136 130 122 117 119 121 121 115 117 112 118 129 130 128 127 128 133 133 132 123 118 124 120 116 113 110 106
224 237 198 242 254 249 244 241 242 247 245 272 257 199 204 180 235 220 288 185 228 165 175 230 185 195 155 108 123 163 109 118 125 124 132 135 130 135 135 134 141 135 124 135 137 138 127 121 109 108 114 133 139 137 138 139 138 137 131 135 138 142 143 140 139 137 137 137 139 137 132 126 125 117 115 120 122 122 121 125 121 130 140 137 138 140 139 141 137 132 130 130 127 125 120 119 114
231 198 273 263 239 252 251 254 243 227 226 229 247 210 198 168 266 260 235 289 156 223 148 242 194 183 128 107 92 57 125 124 138 132 140 142 137 139 128 127 126 132 129 132 133 133 131 134 118 110 109 113 121 123 132 139 137 130 127 128 135 142 145 142 143 145 137 135 138 133 127 127 126 124 128 125 125 124 130 135 136 134 140 147 146 144 145 136 138 139 139 134 131 125 125 123 118
245 219 200 243 250 249 244 245 248 240 90 210 246 177 133 269 219 248 235 248 156 200 196 190 206 176 136 136 126 146 138 142 133 135 145 138 130 126 125 119 125 123 126 126 123 131 134 137 139 125 111 112 107 103 104 133 137 130 131 136 140 140 137 142 146 142 138 138 134 129 130 132 136 131 130 128 128 125 134 144 145 142 146 149 151 153 135 137 145 148 145 142 134 131 131 127 126
251 244 227 244 254 247 256 276 297 293 304 219 239 113 88 242 246 239 261 260 230 200 196 190 162 223 147 116 159 135 171 135 136 144 146 132 128 129 124 123 118 123 127 129 124 128 139 148 144 151 133 119 112 109 103 104 133 135 143 146 145 145 140 141 143 137 135 128 128 131 136 137 135 133 131 128 132 133 140 144 152 149 148 149 153 150 136 143 155 158 151 145 140 138 137 138 137
240 248 266 258 253 263 279 276 276 272 236 228 90 107 101 297 265 280 273 252 238 231 180 188 218 92 92 89 15 114 171 141 137 145 142 132 134 122 120 125 126 128 131 134 131 136 140 145 153 153 143 141 131 114 108 106 108 108 98 120 128 129 133 132 131 121 122 125 128 137 142 140 135 135 136 139 135 134 130 139 150 152 147 144 146 146 148 153 162 161 157 153 149 145 150 147 142
252 245 267 269 268 264 239 257 254 241 260 96 101 204 353 237 278 253 253 255 245 251 91 170 193 185 137 187 177 174 172 155 147 140 136 141 127 126 133 136 129 125 127 133 138 134 138 142 148 148 148 148 153 153 152 129 117 120 111 109 111 113 103 124 118 120 118 129 128 136 150 144 139 148 147 143 144 139 139 138 145 152 151 150 151 151 153 162 157 167 159 164 155 145 143 124 110
251 269 250 254 249 253 242 237 243 280 246 128 105 241 264 281 227 250 238 252 268 196 124 178 212 274 157 206 158 146 152 158 142 134 144 136 126 129 132 130 132 126 125 131 130 130 137 138 140 147 152 155 164 160 153 150 135 130 113 103 122 131 116 112 106 129 156 132 137 152 150 149 150 155 152 153 150 146 154 170 142 149 156 152 150 153 154 148 156 171 166 163 150 138 128 125 124
238 264 252 237 252 242 244 246 230 245 140 136 75 60 308 306 95 254 287 272 254 191 187 198 203 181 174 162 130 139 166 147 138 147 152 136 142 141 137 135 130 128 133 139 141 132 138 142 146 144 149 142 143 142 162 161 149 141 129 111 111 134 124 125 122 141 169 137 144 159 147 154 171 150 165 168 159 178 171 156 142 141 155 160 156 158 163 161 169 172 167 152 145 141 144 137 135
220 227 239 243 248 246 243 241 238 43 264 85 9 39 321 276 5 196 218 228 242 222 212 192 195 184 116 108 120 142 153 148 148 156 155 150 152 145 145 139 141 136 144 140 149 148 137 145 152 142 141 148 135 147 153 172 165 170 169 161 161 151 144 148 150 162 167 159 160 179 173 199 187 178 181 177 169 183 170 153 150 152 148 160 167 168 170 171 172 173 162 154 149 153 156 183 169
226 227 235 249 232 250 351 7 341 309 317 0 353 294 356 291 323 176 250 222 214 219 209 169 172 106 88 104 129 146 153 151 155 160 159 157 153 149 146 143 139 136 142 150 154 144 150 158 151 145 138 142 153 156 166 170 164 175 173 178 176 187 183 182 175 170 191 173 180 180 196 206 220 178 197 182 174 182 178 153 158 166 164 156 169 173 169 170 168 165 162 160 163 165 184 221 200
226 254 237 238 261 310 12 354 286 298 322 277 299 311 291 315 268 32 255 251 203 217 198 171 193 139 130 139 159 159 152 157 163 162 162 162 153 147 142 144 140 144 148 152 145 144 149 151 146 144 144 156 152 145 148 163 163 170 172 180 182 190 205 201 184 182 201 190 169 202 188 236 234 209 210 194 140 174 154 161 165 167 167 180 158 169 171 171 167 168 166 166 180 195 211 229 215
196 234 246 248 70 305 216 241 259 261 279 282 275 316 268 99 293 269 255 259 223 209 204 193 200 162 146 148 147 155 160 161 170 167 162 161 152 145 147 144 150 142 144 145 142 149 145 153 144 135 139 152 143 141 150 159 162 165 181 177 183 190 195 197 190 190 205 159 200 194 198 203 222 215 185 204 209 166 160 167 182 198 188 192 178 192 185 167 183 182 174 182 202 197 213 221 263
257 235 249 266 316 236 260 251 24 297 306 273 265 258 299 345 245 236 252 248 231 231 207 203 188 157 152 146 158 165 173 174 172 165 170 155 152 151 143 138 131 136 145 155 152 157 155 155 157 151 143 161 132 154 163 179 160 168 170 192 189 194 180 198 191 201 172 182 214 215 180 202 208 190 234 219 189 56 160 178 171 198 205 222 179 227 189 165 203 187 188 197 203 203 208 220 212
243 225 246 259 271 276 360 315 260 237 243 252 264 295 310 261 280 235 250 249 306 250 195 200 188 129 138 154 166 165 181 180 173 169 153 152 150 144 142 137 139 143 159 138 153 156 155 159 154 155 160 158 160 172 157 205 209 213 181 168 195 166 253 261 254 225 191 202 215 238 210 202 171 198 195 228 133 159 223 223 182 193 240 209 172 217 211 187 201 174 202 197 202 210 202 195 203
249 261 223 223 256 257 255 251 249 241 239 240 271 298 265 269 249 143 233 108 169 105 104 97 97 121 144 138 135 193 168 165 177 155 149 148 150 143 141 143 147 147 151 141 154 143 181 155 156 180 152 141 183 183 161 166 191 163 214 255 229 170 169 192 214 213 175 188 210 221 214 143 243 193 180 200 175 159 185 183 224 178 205 196 162 144 219 187 186 197 187 203 217 218 206 204 206
230 242 257 250 245 257 256 245 235 241 243 249 245 256 250 233 321 167 210 136 146 175 127 98 114 125 158 157 177 188 163 168 156 157 150 155 154 140 145 144 141 149 136 162 146 158 172 139 148 160 123 159 150 260 137 171 161 159 157 214 193 226 175 196 208 153 184 197 205 221 188 189 203 219 168 167 210 145 144 237 115 92 256 164 296 200 230 197 176 193 185 215 207 217 211 203 202
220 246 246 260 246 237 231 228 234 232 230 227 239 232 232 241 135 221 122 104 153 146 152 124 123 147 143 173 158 181 156 158 159 154 157 153 146 149 146 149 141 148 153 144 157 152 145 147 165 128 164 166 133 203 105 141 140 211 162 182 166 184 199 195 196 181 163 286 266 209 188 193 219 173 179 160 105 152 150 59 67 36 350 258 138 257 230 219 200 172 205 192 185 226 208 192 206
343 218 247 254 248 239 218 242 226 210 233 198 233 208 177 164 225 123 109 120 166 161 128 145 139 155 173 173 189 184 158 162 164 155 157 150 155 155 156 150 156 150 149 145 153 152 119 161 140 141 127 57 122 178 106 95 338 214 181 162 194 183 163 217 183 181 194 163 209 205 172 202 207 59 70 43 147 176 158 113 283 12 286 256 233 197 239 247 254 218 234 221 165 238 203 209 213
212 265 266 248 251 247 241 225 240 204 206 211 239 186 189 169 214 175 135 158 175 149 159 123 150 168 186 180 174 177 168 166 162 161 159 160 160 161 162 159 151 143 149 146 148 124 160 146 131 111 98 83 325 104 144 154 246 230 201 173 158 162 102 231 216 191 170 141 172 150 153 210 225 64 308 161 242 234 168 163 153 227 241 238 240 244 238 221 241 250 187 272 309 159 237 202 209
246 234 247 226 222 228 203 218 212 207 192 195 231 173 206 183 186 110 129 159 194 159 155 160 167 165 193 176 167 185 168 165 169 170 161 161 162 154 158 151 145 150 140 147 127 137 141 103 99 104 109 115 112 13 51 41 22 232 177 235 124 145 183 201 231 31 88 33 342 138 168 201 109 140 158 257 270 346 30 166 244 233 236 230 217 215 248 200 251 65 205 233 214 171 205 214 223
246 242 254 249 207 221 185 219 190 204 140 195 196 225 188 195 108 134 147 174 181 176 161 163 170 176 168 185 171 177 167 167 175 170 166 157 154 153 144 165 155 151 144 141 135 139 129 108 110 96 112 136 87 69 31 348 65 12 337 182 104 165 190 220 103 101 143 203 166 159 152 146 163 132 158 284 286 353 234 268 241 217 216 223 212 206 205 208 229 214 184 195 190 194 201 191 200
235 211 223 253 211 212 151 201 164 216 122 203 204 248 201 153 129 124 173 179 188 183 159 190 147 195 180 170 178 165 176 166 180 166 146 146 143 149 168 159 169 148 148 140 146 139 132 119 123 114 116 106 142 104 128 92 90 342 348 61 102 199 42 245 147 166 202 183 145 93 139 95 134 139 115 107 332 221 231 229 235 225 202 203 208 195 214 205 217 209 207 186 195 189 192 183 182
234 215 211 224 245 128 156 193 173 224 140 210 216 240 232 152 136 141 165 191 209 194 174 185 194 155 96 158 142 178 159 156 157 165 151 163 170 164 162 170 166 151 147 144 142 143 135 128 135 128 132 120 103 98 95 68 92 54 45 67 105 146 194 86 103 268 201 177 97 82 145 108 110 58 109 146 176 240 236 227 232 239 187 191 202 196 210 211 210 217 210 155 191 208 183 179 169
208 239 212 208 230 133 172 194 178 240 157 195 223 232 215 165 138 153 174 193 204 217 191 186 184 157 173 150 147 134 142 177 150 139 160 162 183 171 164 172 167 151 145 150 144 146 139 134 142 137 140 135 125 116 122 100 104 124 119 82 104 163 150 137 24 55 40 81 29 107 3 96 314 128 208 186 210 236 242 225 216 227 213 198 198 202 213 212 213 205 228 244 159 323 350 149 126
210 218 236 229 227 173 218 144 205 180 216 184 205 252 262 101 134 157 176 209 192 216 198 204 187 205 154 167 155 192 166 178 170 173 171 170 176 184 173 175 168 152 146 152 147 150 141 140 143 141 142 139 132 134 127 153 123 104 132 100 36 72 117 148 156 131 58 68 134 139 211 117 187 139 167 175 225 228 234 233 228 220 218 210 204 211 209 213 216 205 215 187 306 225 162 215 151
222 177 243 217 263 301 140 189 153 207 201 250 186 230 246 161 166 158 188 202 215 203 213 201 214 205 156 181 168 179 155 168 208 170 167 167 192 180 182 171 165 154 151 152 148 154 142 143 140 144 146 139 143 142 140 108 110 97 76 120 127 140 99 60 47 107 81 82 32 79 92 106 106 158 154 228 226 216 208 220 248 203 235 227 232 228 215 215 212 221 221 187 226 229 233 163 175
30 205 221 216 203 212 271 104 145 250 185 233 230 212 238 237 194 213 180 200 229 200 208 210 220 215 203 201 178 165 165 192 187 190 156 194 198 179 184 169 164 155 156 150 154 155 148 144 146 148 148 147 146 151 158 157 156 156 135 132 122 65 54 72 72 102 157 109 107 85 86 104 110 119 115 170 227 218 204 200 221 230 210 273 260 242 249 223 213 224 221 213 213 302 273 202 179
333 311 299 285 225 203 210 108 66 193 281 237 221 206 251 247 229 218 177 205 229 228 194 205 221 217 215 213 203 181 187 166 181 180 184 190 208 180 176 164 163 157 161 155 161 160 154 156 150 153 149 155 160 168 177 169 154 141 137 114 111 141 94 109 69 51 56 60 33 52 51 63 70 24 50 182 190 234 263 187 198 220 210 172 234 241 244 290 259 227 211 8 196 190 270 293 200
277 263 250 249 223 269 196 190 145 182 250 239 242 237 247 254 216 236 194 222 228 216 212 198 215 209 217 217 215 201 145 165 189 180 190 201 195 178 166 166 168 167 167 164 166 164 159 160 157 150 153 161 165 177 154 147 152 137 162 136 129 130 149 147 110 100 82 79 75 60 49 48 53 71 58 20 326 240 209 219 244 209 223 152 177 251 258 233 264 281 17 227 247 214 253 246 210
246 255 243 250 233 226 57 89 160 164 233 262 231 211 239 243 224 223 201 223 231 220 212 210 206 211 214 208 213 210 180 176 182 168 181 199 190 171 165 164 169 172 167 170 168 166 164 161 163 154 156 160 156 156 155 153 125 102 156 113 123 96 59 51 80 86 85 94 78 77 67 64 42 70 54 45 288 261 308 247 195 247 272 290 191 196 205 156 194 253 194 224 226 208 220 214 178
247 226 246 238 235 229 193 174 204 210 243 264 285 266 225 264 231 220 210 219 221 210 205 213 209 207 209 219 208 209 210 191 154 166 180 189 185 169 174 170 172 172 174 177 175 174 170 170 167 161 158 160 150 152 159 127 111 103 82 101 76 84 97 90 96 89 91 89 81 61 67 46 41 47 56 191 138 49 359 81 223 285 230 253 269 279 220 197 172 193 228 201 202 252 218 187 180
221 253 254 251 236 265 294 128 213 135 251 277 268 262 252 237 235 205 211 214 206 196 207 212 212 216 213 225 229 214 213 208 181 184 187 187 187 182 181 180 173 179 178 181 180 178 175 176 167 163 159 158 149 150 153 132 128 125 115 104 103 101 115 131 132 116 103 98 103 93 81 74 74 57 47 19 53 63 58 10 51 56 20 51 288 156 270 359 66 10 27 349 320 338 2 72 64
227 211 255 273 291 274 243 140 201 218 225 200 228 248 245 231 229 225 198 191 214 202 203 196 194 198 195 207 212 237 259 221 211 172 198 198 196 191 189 180 183 184 182 182 178 180 175 173 168 164 160 156 151 153 152 151 157 145 147 146 143 148 140 149 138 131 140 121 90 99 90 76 62 63 62 59 65 78 85 51 16 95 102 59 96 177 189 75 355 132 53 29 34 22 19 111 170
259 222 198 247 261 236 237 241 224 247 255 164 185 254 265 247 232 205 194 198 211 198 204 202 194 187 192 198 192 197 201 200 252 217 200 204 204 200 194 193 188 185 183 177 177 178 176 173 170 167 160 158 152 155 155 164 164 159 163 160 155 152 147 126 109 114 104 104 108 90 94 91 90 79 67 74 63 53 57 56 36 25 42 54 29 29 31 359 18 19 19 33 35 48 40 84 135
257 80 184 230 238 238 235 246 241 259 273 140 213 247 260 260 222 220 188 204 201 177 204 217 198 197 207 193 201 184 195 176 200 210 217 199 209 205 203 198 194 189 178 176 176 178 176 174 167 168 163 161 157 157 160 171 171 163 172 169 159 155 146 125 131 118 109 110 115 118 113 116 111 100 96 88 96 82 68 69 50 39 40 72 78 62 42 38 26 46 30 3 23 23 30 60 92
85 265 267 236 245 231 229 231 243 247 257 256 214 217 247 248 248 168 183 204 217 201 197 196 213 194 178 193 238 138 203 257 243 238 221 219 209 214 206 201 199 190 183 179 179 176 173 170 167 168 165 163 159 158 164 174 179 167 176 173 167 149 135 143 139 134 129 124 127 129 116 105 99 95 93 86 76 78 80 69 52 49 34 46 65 72 54 41 35 33 36 38 34 33 28 16 38
214 297 265 266 256 243 227 241 251 251 260 253 244 227 256 247 235 190 189 231 234 227 197 192 161 184 206 134 135 210 207 197 240 235 240 236 247 237 215 201 195 194 189 182 178 173 171 167 165 169 167 166 163 163 167 175 182 172 181 176 171 149 152 151 148 138 134 144 134 131 132 123 114 116 109 97 94 94 87 83 77 62 50 43 45 59 64 67 52 52 46 45 41 46 41 36 26
336 258 248 235 241 238 230 242 253 253 237 237 249 241 230 257 251 227 210 212 260 176 166 161 139 159 140 99 227 20 359 356 342 331 315 293 250 249 237 211 195 191 189 183 179 174 170 167 165 169 169 167 166 165 169 175 185 175 186 176 173 158 159 157 147 152 147 151 147 148 145 130 125 115 117 113 105 100 92 84 81 81 72 55 64 68 58 74 85 80 75 64 48 39 45 41 47
250 232 237 234 225 230 240 239 238 252 252 247 238 226 210 254 225 237 157 133 38 131 152 140 135 91 46 51 28 20 16 352 347 343 338 338 318 258 231 220 197 189 186 183 180 175 173 170 170 170 168 170 169 168 170 176 183 181 186 177 174 164 162 165 157 161 159 159 154 158 144 141 135 132 130 129 125 113 107 105 103 100 87 88 83 80 92 84 75 66 57 58 63 58 45 46 45
226 237 234 233 248 221 239 226 223 228 247 281 247 210 220 230 273 356 114 155 142 194 174 141 145 87 66 49 23 29 13 2 358 351 343 334 307 272 226 214 197 188 187 185 181 179 175 174 172 173 169 169 169 171 173 177 182 184 184 179 177 168 170 174 165 167 168 165 166 163 158 155 149 151 148 140 136 140 125 127 124 102 97 78 73 81 72 61 65 71 69 66 59 55 52 46 50
229 235 228 241 233 232 242 238 236 245 238 239 220 12 245 288 253 111 147 121 122 126 109 104 102 83 69 26 38 31 30 23 15 12 5 358 337 266 214 203 196 195 198 195 184 179 180 182 181 178 170 170 168 172 173 177 184 184 184 181 180 173 179 177 180 174 175 175 168 164 169 161 160 161 157 154 151 159 147 127 116 103 99 102 93 78 67 66 77 89 79 71 73 67 61 61 55
242 243 234 238 256 251 250 251 259 265 231 181 194 185 250 244 62 170 124 145 140 139 130 121 113 116 96 64 38 38 39 39 30 26 20 7 359 292 192 201 199 196 201 198 192 188 186 184 184 179 172 171 170 173 174 178 181 185 185 186 184 183 180 183 188 179 180 184 173 168 174 165 166 166 165 155 162 162 147 148 134 134 128 118 111 105 104 93 63 68 77 74 68 68 64 56 54
239 241 255 237 240 238 261 283 286 299 308 243 183 239 262 302 157 141 157 156 154 149 137 139 134 119 102 78 58 42 42 43 39 36 27 34 30 19 154 199 202 197 199 200 195 188 187 186 184 181 175 174 172 174 176 178 180 184 186 189 189 191 185 184 193 181 182 191 177 173 177 170 169 166 162 158 169 165 159 154 154 144 144 140 134 130 130 107 98 97 100 102 96 97 101 96 94
90 259 230 252 265 251 257 256 212 150 254 256 272 218 237 127 192 153 179 157 151 167 158 160 143 125 110 82 69 58 50 47 46 48 38 23 74 85 113 171 168 185 191 189 190 187 183 186 184 185 181 177 176 177 178 179 180 185 190 191 192 195 194 192 193 187 180 186 182 178 181 179 169 170 162 162 172 168 168 167 165 158 156 152 147 144 130 121 136 129 108 117 113 111 92 79 66
272 243 262 273 255 297 274 274 239 248 251 254 224 243 248 228 237 170 179 197 167 180 185 152 141 142 126 102 88 74 63 57 60 68 63 36 35 58 106 136 148 161 163 168 177 176 181 189 189 187 185 182 181 179 180 180 183 190 191 195 196 197 201 201 200 190 185 185 187 187 184 185 177 174 166 165 174 170 170 175 170 169 168 164 159 155 152 147 157 137 139 136 116 125 141 134 128
258 267 360 279 240 234 230 257 257 262 262 273 255 255 257 251 228 156 191 203 187 192 176 160 168 150 116 111 99 90 79 74 68 61 68 71 61 64 50 94 123 133 137 143 149 157 164 185 177 182 184 184 186 180 181 181 189 192 196 198 201 201 202 204 207 199 187 188 194 193 191 188 180 178 170 170 175 174 174 178 176 176 173 172 169 163 160 163 169 149 167 151 151 180 150 139 120
227 260 269 262 273 266 264 237 271 267 263 262 268 265 262 215 244 178 204 203 190 190 172 180 159 134 122 108 104 95 84 74 73 72 70 76 73 68 72 67 92 100 109 126 125 136 137 152 156 183 182 175 178 182 177 184 191 196 199 204 206 210 212 212 211 209 200 200 199 206 198 191 187 186 179 175 180 177 179 180 180 180 178 176 176 168 175 169 172 165 177 175 162 184 173 177 170
219 226 247 245 240 276 284 279 257 257 268 264 274 267 247 268 20 175 187 215 195 179 183 165 140 128 118 107 99 94 91 85 78 78 80 84 91 95 96 95 85 81 82 68 65 90 127 148 158 170 174 184 183 165 175 182 180 201 208 212 208 207 216 231 246 229 217 210 215 215 205 195 192 195 185 183 186 183 183 184 183 184 182 182 179 177 180 174 182 173 186 171 171 193 192 181 177
303 291 270 258 254 239 242 250 243 259 265 269 264 265 273 40 95 255 282 187 181 178 185 152 145 128 118 112 107 107 102 95 92 86 83 82 84 92 100 96 86 77 75 84 92 95 90 118 135 122 155 199 198 196 200 184 189 201 207 212 210 219 202 201 226 249 241 195 229 231 226 205 206 198 195 190 192 187 188 188 189 188 188 186 185 183 182 182 187 179 179 172 186 193 206 179 192